Regional Weather Roundup
Issued by NWS

Home | Current Version | Previous Version | Graphics & Text | Print | Product List | Glossary Off
Versions: 1 2 3 4 5 6 7 8 9 10 11 12 13 14 15 16 17 18 19 20 21 22 23 24 25 26 27 28 29 30 31 32 33 34 35 36 37 38 39 40 41 42 43 44 45 46 47 48 49 50

000
ASUS43 KMKX 240559
RWRWI

WISCONSIN REGIONAL WEATHER ROUNDUP
NATIONAL WEATHER SERVICE MILWAUKEE/SULLIVAN WI
1200 AM CST SAT FEB 24 2018

NOTE: "FAIR" INDICATES FEW OR NO CLOUDS BELOW 12,000 FEET WITH NO
SIGNIFICANT WEATHER AND/OR OBSTRUCTIONS TO VISIBILITY.

WIZ001-002-006>008-014>016-023>028-240700-
NORTHWEST WISCONSIN

CITY           SKY/WX    TMP DP  RH WIND       PRES   REMARKS
SUPERIOR ARPT  FAIR      25  18  75 W6        30.24R WCI  18
6HR MIN TEMP:  25; 6HR MAX TEMP:  33;

ASHLAND        FAIR      25  19  78 SW7       30.22S WCI  17
6HR MIN TEMP:  23; 6HR MAX TEMP:  31;

HAYWARD        FAIR      13   9  84 S5        30.22F FOG     WCI   5
6HR MIN TEMP:  12; 6HR MAX TEMP:  28;

SIREN          FAIR      19  16  88 W5        30.25F WCI  12
CUMBERLAND     FOG        9   5  85 S5        30.24S VSB<1/4 WCI   0
RICE LAKE      FOG        8   5  89 CALM      30.27S VSB<1/4
CHETEK           N/A     12  10  92 CALM      30.26S FOG
LADYSMITH      FAIR       9   6  87 CALM      30.26S FOG
EAU CLAIRE     FOG       13  10  88 CALM      30.27S VSB 1/4
6HR MIN TEMP:  10; 6HR MAX TEMP:  25;

MENOMONIE      FOG        8   4  86 CALM      30.28S VSB 1/4
6HR MIN TEMP:   8; 6HR MAX TEMP:  28;

NEW RICHMOND   FOG        7   3  84 CALM      30.28R VSB 1/4
OSCEOLA        FAIR      18  15  88 W3        30.31S
$$

WIZ003>005-009-010-017-018-240700-
NORTH CENTRAL WISCONSIN

CITY           SKY/WX    TMP DP  RH WIND       PRES   REMARKS
MANITOWISH WTR CLOUDY    25  24  97 SW6       30.18S WCI  18
ARBOR VITAE    CLOUDY    26  23  87 W3        30.20R
WOODRUFF       CLOUDY    26  23  87 W3        30.20R
RHINELANDER    CLOUDY    22  20  92 W5        30.21S WCI  16
6HR MIN TEMP:  22; 6HR MAX TEMP:  28;

EAGLE RIVER    CLOUDY    27  21  79 W6        30.18S WCI  20
6HR MIN TEMP:  27; 6HR MAX TEMP:  28;

LAND O LAKES   CLOUDY    28  23  82 W3        30.19S
PHILLIPS       FAIR      11  10  94 CALM      30.21S FOG
TOMAHAWK       FOG       10   8  92 CALM      30.23S VSB 3/4
MEDFORD          N/A     17  15  94 CALM      30.22S FOG
MERRILL        FOG       13  12  93 CALM      30.24R VSB 1/2
6HR MIN TEMP:  13; 6HR MAX TEMP:  29;

$$

WIZ029-030-035-036-043>047-240700-
CENTRAL WISCONSIN

CITY           SKY/WX    TMP DP  RH WIND       PRES   REMARKS
WAUSAU         FAIR      22  19  89 W5        30.23S FOG     WCI  16
6HR MIN TEMP:  22; 6HR MAX TEMP:  28;

MOSINEE        FAIR      23  21  93 W5        30.25  WCI  17
MARSHFIELD     FAIR      16  14  92 NW10      30.22F FOG     WCI   4
6HR MIN TEMP:  16; 6HR MAX TEMP:  28;

STEVENS POINT  FAIR      24  21  89 W5        30.26S WCI  18
WAUPACA        CLOUDY    31  22  70 NW3       30.27S
WAUTOMA        MOCLDY    28  22  78 N5        30.27S WCI  23
6HR MIN TEMP:  28; 6HR MAX TEMP:  31;

WISC RAPIDS    FAIR      24  19  81 NW3       30.26F
6HR MIN TEMP:  23; 6HR MAX TEMP:  30;

CAMP DOUGLAS   FAIR      22  20  92 CALM      30.27R
6HR MIN TEMP:  22; 6HR MAX TEMP:  31;

$$

WIZ011>013-019>022-031-037>040-048>050-240700-
NORTHEAST WISCONSIN

CITY           SKY/WX    TMP DP  RH WIND       PRES   REMARKS
ANTIGO         CLOUDY    23  20  89 W3        30.22R
SHAWANO        CLOUDY    32  23  69 NW6       30.25S WCI  26
OCONTO         CLOUDY    32  23  69 NW5       30.26R WCI  27
STURGEON BAY   CLOUDY    32  23  69 NW7       30.26R WCI  26
6HR MIN TEMP:  32; 6HR MAX TEMP:  34;

GREEN BAY      CLOUDY    32  22  66 NW7       30.26S WCI  26
6HR MIN TEMP:  31; 6HR MAX TEMP:  33;

MANITOWOC      CLOUDY    32  24  72 NW7       30.28R WCI  26
6HR MIN TEMP:  32; 6HR MAX TEMP:  34;

APPLETON       CLOUDY    30  21  69 NW8       30.24S WCI  23
CLINTONVILLE   CLOUDY    31  21  66 NW5       30.26S WCI  26
6HR MIN TEMP:  31; 6HR MAX TEMP:  32;

OSHKOSH        CLOUDY    30  22  72 NW9       30.27R WCI  22
6HR MIN TEMP:  30; 6HR MAX TEMP:  33;

$$

WIZ032>034-041-042-053>061-240700-
SOUTHWEST WISCONSIN

CITY           SKY/WX    TMP DP  RH WIND       PRES   REMARKS
LA CROSSE      NOT AVBL
SPARTA         FAIR      21  20  96 CALM      30.28S FOG
VIROQUA        CLOUDY    25  24  97 CALM      30.26R
BOSCOBEL       CLOUDY    28  22  78 N3        30.30F
6HR MIN TEMP:  27; 6HR MAX TEMP:  33;

PRAIRIE DU CHI FAIR      26  21  81 NW6       30.29F WCI  19
PLATTEVILLE    FAIR      27  26  95 NW5       30.27F WCI  22
$$

WIZ056-057-062-063-064-067-068-240700-
SOUTH CENTRAL WISCONSIN

CITY           SKY/WX    TMP DP  RH WIND       PRES   REMARKS
REEDSBURG      CLOUDY    26  22  82 CALM      30.28R
6HR MIN TEMP:  26; 6HR MAX TEMP:  32;

BARABOO/DELLS  CLOUDY    27  22  82 N3        30.28R
LONE ROCK      NOT AVBL
MINERAL POINT  FAIR      28  28 100 CALM      30.26R
MADISON        MOCLDY    28  24  85 CALM      30.29R
6HR MIN TEMP:  27; 6HR MAX TEMP:  34;

MIDDLETON      FAIR      30  26  84 CALM      30.28R
WATERTOWN      FAIR      28  25  90 NW3       30.26F
MONROE         FAIR      28  27  93 NW7       30.25S WCI  21
JANESVILLE     FAIR      32  32 100 N3        30.26S
$$

WIZ051-052-058>065-066-070>072-240700-
SOUTHEAST WISCONSIN

CITY           SKY/WX    TMP DP  RH WIND       PRES   REMARKS
MILWAUKEE      FAIR      33  27  78 NW5       30.27R WCI  29
6HR MIN TEMP:  33; 6HR MAX TEMP:  38;

WAUKESHA       FAIR      28  25  86 CALM      30.27S
MILWAUKEE/TIMM FAIR      30  23  74 CALM      30.28R
RACINE         CLOUDY    32  29  88 N5        30.28R WCI  27
6HR MIN TEMP:  30; 6HR MAX TEMP:  37;

BURLINGTON     FAIR      29  26  89 NW5       30.27R WCI  24
KENOSHA        FAIR      32  28  85 NW5       30.26S WCI  27
6HR MIN TEMP:  29; 6HR MAX TEMP:  36;

FOND DU LAC    CLOUDY    31  22  69 N9        30.27R WCI  23
6HR MIN TEMP:  31; 6HR MAX TEMP:  34;

SHEBOYGAN      CLOUDY    31  24  75 NW7       30.27R WCI  24
6HR MIN TEMP:  31; 6HR MAX TEMP:  35;

WEST BEND      CLOUDY    32  27  80 CALM      30.26S
JUNEAU         CLOUDY    29  24  79 N8        30.27S WCI  21
$$

LSZ147-162-240700-
LAKE SUPERIOR

STATION/POSITION TIME  TEMP    WIND        PRES    WAVE
                       AIR SEA DIR/SP/G            HT/PER
                 (UTC) (F)     (DEG/KT/KT) (MB)    (FT/S)
DEVILS ISLAND    0500   29     260/ 13/ 14 1023.8R
SAXON HARBOR     0540   30     210/  3/  6 1022.7F
$$

LMZ867-665-643>646-240700-
LAKE MICHIGAN

STATION/POSITION TIME  TEMP    WIND        PRES    WAVE
                       AIR SEA DIR/SP/G            HT/PER
                 (UTC) (F)     (DEG/KT/KT) (MB)    (FT/S)
NORTHPORT PIER   0540   33                 1023.7R
KEWAUNEE LAKESHO 0530   33     320/  4/  6 1023.5R
SHEBOYGAN LAKESH 0500   32     340/  9/ 11 1025.3R
PORT WASHINGTON  0530   32     300/  3/  5 1026.1S
KENOSHA   LAKESH 0500   33     290/  4/  6 1024.7
$$

TC  - TEMPERATURE IN CELSIUS
VSB - VISIBILITY IN STATUTE MILES
WCI - WIND CHILL INDEX
HX  - HEAT INDEX





USA.gov is the U.S. government's official web portal to all federal, state and local government web resources and services.